Location: Gollag?dem
(17.0207°N, 80.7261°E)
Time: 06:27:13
(UTC+00:00)

ARIANE 6 FM1 Upper Stage - Pass Details

Date: 03 August 2024
Orbit: 567 x 594 km, 62.0° (Epoch: 10 September)

Event Time Altitude Azimuth Distance (km) Brightness Sun altitude
Rises 13:37:22 0° 345° (NNW) 2,827 6.8 -7.3°
Reaches altitude 10° 13:39:46 10° 354° (N) 1,923 5.8 -7.8°
Maximum altitude 13:43:47 36° 61° (ENE) 950 3.5 -8.7°
Enters shadow 13:47:29 12° 127° (SE) 1,811 4.6 -9.5°
